owner,sensor,date,latitude,longitude,vertical_datum,wind_speed,wind_to_direction,wind_speed_of_gust,qcFlag 
TABS,ioos:station:wmo:42046:1,2009-10-01T00:00:00Z,27.8903,-94.0367,4.0,4.745366161,130.4706594,5.71,'11111222,11111222,11111222' 
TABS,ioos:station:wmo:42046:1,2009-10-01T00:30:00Z,27.8903,-94.0367,4.0,3.819031291,133.9394065,5.22,'11111222,11111222,11111222' 
TABS,ioos:station:wmo:42046:1,2009-10-01T01:00:00Z,27.8903,-94.0367,4.0,4.532206968,123.0242112,5.59,'11111222,11111222,11111222' 
TABS,ioos:station:wmo:42046:1,2009-10-01T01:30:00Z,27.8903,-94.0367,4.0,4.556983651,123.2719462,5.77,'11111222,11111222,11111222' 
TABS,ioos:station:wmo:42046:1,2009-10-01T02:00:00Z,27.8903,-94.0367,4.0,4.645739984,134.7386936,5.88,'11111222,11111222,11111222' 
TABS,ioos:station:wmo:42046:1,2009-10-01T02:30:00Z,27.8903,-94.0367,4.0,4.461255429,138.0894648,5.42,'11111222,11111222,11111222' 
TABS,ioos:station:wmo:42046:1,2009-10-01T03:00:00Z,27.8903,-94.0367,4.0,5.130623744,137.2909204,5.91,'11111222,11111222,11111222' 
TABS,ioos:station:wmo:42046:1,2009-10-01T03:30:00Z,27.8903,-94.0367,4.0,4.576505217,142.2790404,5.48,'11111222,11111222,11111222' 
TABS,ioos:station:wmo:42046:1,2009-10-01T04:00:00Z,27.8903,-94.0367,4.0,4.73601098,144.8001414,6.21,'11111222,11111222,11111222' 
TABS,ioos:station:wmo:42046:1,2009-10-01T04:30:00Z,27.8903,-94.0367,4.0,5.624677769,140.3381995,7.51,'11111222,11111222,11111222' 
TABS,ioos:station:wmo:42046:1,2009-10-01T05:00:00Z,27.8903,-94.0367,4.0,6.115570292,146.3362061,7.18,'11111222,11111222,11111222' 
TABS,ioos:station:wmo:42046:1,2009-10-01T05:30:00Z,27.8903,-94.0367,4.0,7.026990821,142.1682227,8.36,'11111222,11111222,11111222' 
TABS,ioos:station:wmo:42046:1,2009-10-01T06:00:00Z,27.8903,-94.0367,4.0,6.810910365,149.8588954,8.04,'11111222,11111222,11111222' 
TABS,ioos:station:wmo:42046:1,2009-10-01T06:30:00Z,27.8903,-94.0367,4.0,7.096618913,151.5573483,8.1,'11111222,11111222,11111222' 
TABS,ioos:station:wmo:42046:1,2009-10-01T07:00:00Z,27.8903,-94.0367,4.0,7.171310898,163.0561209,8.64,'11111222,11111222,11111222' 
TABS,ioos:station:wmo:42046:1,2009-10-01T07:30:00Z,27.8903,-94.0367,4.0,6.761723153,167.4438596,8.38,'11111222,11111222,11111222' 
TABS,ioos:station:wmo:42046:1,2009-10-01T08:00:00Z,27.8903,-94.0367,4.0,6.793997351,171.5361846,7.63,'11111222,11111222,11111222' 
TABS,ioos:station:wmo:42046:1,2009-10-01T08:30:00Z,27.8903,-94.0367,4.0,6.277395957,166.7388164,7.39,'11111222,11111222,11111222' 
TABS,ioos:station:wmo:42046:1,2009-10-01T09:00:00Z,27.8903,-94.0367,4.0,6.608842561,170.594921,7.68,'11111222,11111222,11111222' 
TABS,ioos:station:wmo:42046:1,2009-10-01T09:30:00Z,27.8903,-94.0367,4.0,6.670719601,167.7975013,8.02,'11111222,11111222,11111222' 
TABS,ioos:station:wmo:42046:1,2009-10-01T10:00:00Z,27.8903,-94.0367,4.0,6.126867062,177.2872501,7.18,'11111222,11111222,11111222' 
TABS,ioos:station:wmo:42046:1,2009-10-01T10:30:00Z,27.8903,-94.0367,4.0,6.156208249,172.2518292,7.47,'11111222,11111222,11111222' 
TABS,ioos:station:wmo:42046:1,2009-10-01T11:00:00Z,27.8903,-94.0367,4.0,6.331547994,181.2672062,7.51,'11111222,11111222,11111222' 
TABS,ioos:station:wmo:42046:1,2009-10-01T11:30:00Z,27.8903,-94.0367,4.0,5.681980289,178.4874728,6.86,'11111222,11111222,11111222' 
TABS,ioos:station:wmo:42046:1,2009-10-01T12:00:00Z,27.8903,-94.0367,4.0,5.740557464,180.7987043,6.69,'11111222,11111222,11111222' 
TABS,ioos:station:wmo:42046:1,2009-10-01T12:30:00Z,27.8903,-94.0367,4.0,5.700219294,179.49763,6.8,'11111222,11111222,11111222' 
TABS,ioos:station:wmo:42046:1,2009-10-01T13:00:00Z,27.8903,-94.0367,4.0,6.044377553,177.8194763,7.34,'11111222,11111222,11111222' 
TABS,ioos:station:wmo:42046:1,2009-10-01T13:30:00Z,27.8903,-94.0367,4.0,6.256932156,175.7841192,7.49,'11111222,11111222,11111222' 
TABS,ioos:station:wmo:42046:1,2009-10-01T14:00:00Z,27.8903,-94.0367,4.0,6.084011834,174.9081072,7.5,'11111222,11111222,11111222' 
TABS,ioos:station:wmo:42046:1,2009-10-01T14:30:00Z,27.8903,-94.0367,4.0,6.283510166,170.1031794,7.99,'11111222,11111222,11111222' 
TABS,ioos:station:wmo:42046:1,2009-10-01T15:00:00Z,27.8903,-94.0367,4.0,6.54369926,178.0735605,7.68,'11111222,11111222,11111222' 
TABS,ioos:station:wmo:42046:1,2009-10-01T15:30:00Z,27.8903,-94.0367,4.0,6.01167198,175.1336869,7.08,'11111222,11111222,11111222' 
TABS,ioos:station:wmo:42046:1,2009-10-01T16:00:00Z,27.8903,-94.0367,4.0,6.297563021,171.5999273,7.75,'11111222,11111222,11111222' 
TABS,ioos:station:wmo:42046:1,2009-10-01T16:30:00Z,27.8903,-94.0367,4.0,6.407261506,173.8180356,7.25,'11111222,11111222,11111222' 
TABS,ioos:station:wmo:42046:1,2009-10-01T17:00:00Z,27.8903,-94.0367,4.0,6.216309194,175.8489349,7.16,'11111222,11111222,11111222' 
TABS,ioos:station:wmo:42046:1,2009-10-01T17:30:00Z,27.8903,-94.0367,4.0,5.600571399,180.818664,6.68,'11111222,11111222,11111222' 
TABS,ioos:station:wmo:42046:1,2009-10-01T18:00:00Z,27.8903,-94.0367,4.0,5.436221114,177.2588663,7.03,'11111222,11111222,11111222' 
TABS,ioos:station:wmo:42046:1,2009-10-01T18:30:00Z,27.8903,-94.0367,4.0,6.180129448,187.9991827,7.4,'11111222,11111222,11111222' 
TABS,ioos:station:wmo:42046:1,2009-10-01T19:00:00Z,27.8903,-94.0367,4.0,5.875525508,187.1373055,7.2,'11111222,11111222,11111222' 
TABS,ioos:station:wmo:42046:1,2009-10-01T19:30:00Z,27.8903,-94.0367,4.0,5.860801993,187.5496146,6.73,'11111222,11111222,11111222' 
TABS,ioos:station:wmo:42046:1,2009-10-01T20:00:00Z,27.8903,-94.0367,4.0,5.627548312,187.4535484,6.87,'11111222,11111222,11111222' 
TABS,ioos:station:wmo:42046:1,2009-10-01T20:30:00Z,27.8903,-94.0367,4.0,5.325410782,182.5832251,6.72,'11111222,11111222,11111222' 
TABS,ioos:station:wmo:42046:1,2009-10-01T21:00:00Z,27.8903,-94.0367,4.0,5.749243428,175.311065,6.61,'11111222,11111222,11111222' 
TABS,ioos:station:wmo:42046:1,2009-10-01T21:30:00Z,27.8903,-94.0367,4.0,5.538312017,175.3396759,6.72,'11111222,11111222,11111222' 
TABS,ioos:station:wmo:42046:1,2009-10-01T22:00:00Z,27.8903,-94.0367,4.0,6.043252436,176.2050644,6.98,'11111222,11111222,11111222' 
TABS,ioos:station:wmo:42046:1,2009-10-01T22:30:00Z,27.8903,-94.0367,4.0,5.123846212,157.3890001,6.18,'11111222,11111222,11111222' 
TABS,ioos:station:wmo:42046:1,2009-10-01T23:00:00Z,27.8903,-94.0367,4.0,5.661881313,168.5910741,7.02,'11111222,11111222,11111222' 
TABS,ioos:station:wmo:42046:1,2009-10-01T23:30:00Z,27.8903,-94.0367,4.0,5.740705532,179.1019203,6.98,'11111222,11111222,11111222' 
TABS,ioos:station:wmo:42046:1,2009-10-02T00:00:00Z,27.8903,-94.0367,4.0,6.231596906,183.4962423,7.05,'11111222,11111222,11111222' 
TABS,ioos:station:wmo:42046:1,2009-10-02T00:30:00Z,27.8903,-94.0367,4.0,6.502937798,176.3854126,7.68,'11111222,11111222,11111222' 
TABS,ioos:station:wmo:42046:1,2009-10-02T01:00:00Z,27.8903,-94.0367,4.0,6.961838838,181.3171198,7.93,'11111222,11111222,11111222' 
TABS,ioos:station:wmo:42046:1,2009-10-02T01:30:00Z,27.8903,-94.0367,4.0,7.115539333,176.2129257,8.87,'11111222,11111222,11111222' 
TABS,ioos:station:wmo:42046:1,2009-10-02T02:00:00Z,27.8903,-94.0367,4.0,7.595182684,176.3768282,8.98,'11111222,11111222,11111222' 
TABS,ioos:station:wmo:42046:1,2009-10-02T02:30:00Z,27.8903,-94.0367,4.0,7.6267162,177.5955071,8.99,'11111222,11111222,11111222' 
TABS,ioos:station:wmo:42046:1,2009-10-02T03:00:00Z,27.8903,-94.0367,4.0,7.597170526,182.4897576,8.69,'11111222,11111222,11111222' 
TABS,ioos:station:wmo:42046:1,2009-10-02T03:30:00Z,27.8903,-94.0367,4.0,7.892908209,185.2340599,9.23,'11111222,11111222,11111222' 
TABS,ioos:station:wmo:42046:1,2009-10-02T04:00:00Z,27.8903,-94.0367,4.0,8.174154391,191.1451583,9.41,'11111222,11111222,11111222' 
TABS,ioos:station:wmo:42046:1,2009-10-02T04:30:00Z,27.8903,-94.0367,4.0,7.730679142,193.0836789,9.01,'11111222,11111222,11111222' 
TABS,ioos:station:wmo:42046:1,2009-10-02T05:00:00Z,27.8903,-94.0367,4.0,8.15257628,191.4617284,9.5,'11111222,11111222,11111222' 
TABS,ioos:station:wmo:42046:1,2009-10-02T05:30:00Z,27.8903,-94.0367,4.0,8.452768777,193.4774569,10.35,'11111222,11111222,11111222' 
TABS,ioos:station:wmo:42046:1,2009-10-02T06:00:00Z,27.8903,-94.0367,4.0,8.085641595,199.959054,9.59,'11111222,11111222,11111222' 
TABS,ioos:station:wmo:42046:1,2009-10-02T06:30:00Z,27.8903,-94.0367,4.0,8.383203445,198.4999547,9.94,'11111222,11111222,11111222' 
TABS,ioos:station:wmo:42046:1,2009-10-02T07:00:00Z,27.8903,-94.0367,4.0,8.260901888,203.7725037,9.62,'11111222,11111222,11111222' 
TABS,ioos:station:wmo:42046:1,2009-10-02T07:30:00Z,27.8903,-94.0367,4.0,8.672029751,205.9151479,10.31,'11111222,11111222,11111222' 
TABS,ioos:station:wmo:42046:1,2009-10-02T08:00:00Z,27.8903,-94.0367,4.0,8.802420122,204.4979776,10.33,'11111222,11111222,11111222' 
TABS,ioos:station:wmo:42046:1,2009-10-02T08:30:00Z,27.8903,-94.0367,4.0,8.016065119,208.8673024,9.52,'11111222,11111222,11111222' 
TABS,ioos:station:wmo:42046:1,2009-10-02T09:00:00Z,27.8903,-94.0367,4.0,7.867159589,207.3143324,9.28,'11111222,11111222,11111222' 
TABS,ioos:station:wmo:42046:1,2009-10-02T09:30:00Z,27.8903,-94.0367,4.0,8.730280637,208.5320372,10.39,'11111222,11111222,11111222' 
TABS,ioos:station:wmo:42046:1,2009-10-02T10:00:00Z,27.8903,-94.0367,4.0,8.557178273,234.0810108,10.53,'11111222,11111222,11111222' 
TABS,ioos:station:wmo:42046:1,2009-10-02T10:30:00Z,27.8903,-94.0367,4.0,4.152071772,198.391479,7.84,'11111222,11111222,11111222' 
TABS,ioos:station:wmo:42046:1,2009-10-02T11:00:00Z,27.8903,-94.0367,4.0,9.135912653,251.822913,10.59,'11111222,11111222,11111222' 
TABS,ioos:station:wmo:42046:1,2009-10-02T11:30:00Z,27.8903,-94.0367,4.0,8.430895563,255.4363415,9.79,'11111222,11111222,11111222' 
TABS,ioos:station:wmo:42046:1,2009-10-02T12:00:00Z,27.8903,-94.0367,4.0,11.5414947,258.5051129,14.02,'11111222,11111222,11111222' 
TABS,ioos:station:wmo:42046:1,2009-10-02T12:30:00Z,27.8903,-94.0367,4.0,5.854997865,261.4547381,7.18,'11111222,11111222,11111222' 
TABS,ioos:station:wmo:42046:1,2009-10-02T13:00:00Z,27.8903,-94.0367,4.0,6.082400842,253.769977,7.27,'11111222,11111222,11111222' 
TABS,ioos:station:wmo:42046:1,2009-10-02T13:30:00Z,27.8903,-94.0367,4.0,5.657464096,276.5974073,6.64,'11111222,11111222,11111222' 
TABS,ioos:station:wmo:42046:1,2009-10-02T14:00:00Z,27.8903,-94.0367,4.0,8.438631406,316.4883821,11.51,'11111222,11111222,11111222' 
TABS,ioos:station:wmo:42046:1,2009-10-02T14:30:00Z,27.8903,-94.0367,4.0,6.15000813,359.906626,7.92,'11111222,11144222,11111222' 
TABS,ioos:station:wmo:42046:1,2009-10-02T15:00:00Z,27.8903,-94.0367,4.0,7.35774422,352.8168374,8.73,'11111222,11111222,11111222' 
TABS,ioos:station:wmo:42046:1,2009-10-02T15:30:00Z,27.8903,-94.0367,4.0,6.329494451,7.169700562,7.75,'11111222,11111222,11111222' 
TABS,ioos:station:wmo:42046:1,2009-10-02T16:00:00Z,27.8903,-94.0367,4.0,6.359567595,17.95035773,7.42,'11111222,11111222,11111222' 
TABS,ioos:station:wmo:42046:1,2009-10-02T16:30:00Z,27.8903,-94.0367,4.0,7.03320695,24.88866675,8.33,'11111222,11111222,11111222' 
TABS,ioos:station:wmo:42046:1,2009-10-02T17:00:00Z,27.8903,-94.0367,4.0,5.913214016,33.34041892,7.14,'11111222,11111222,11111222' 
TABS,ioos:station:wmo:42046:1,2009-10-02T17:30:00Z,27.8903,-94.0367,4.0,4.916797738,49.70172874,5.91,'11111222,11111222,11111222' 
TABS,ioos:station:wmo:42046:1,2009-10-02T18:00:00Z,27.8903,-94.0367,4.0,5.286984017,67.65486404,6.45,'11111222,11111222,11111222' 
TABS,ioos:station:wmo:42046:1,2009-10-02T18:30:00Z,27.8903,-94.0367,4.0,4.972263066,84.57564713,6.24,'11111222,11111222,11111222' 
TABS,ioos:station:wmo:42046:1,2009-10-02T19:00:00Z,27.8903,-94.0367,4.0,6.630897375,125.1764069,7.55,'11111222,11111222,11111222' 
TABS,ioos:station:wmo:42046:1,2009-10-02T19:30:00Z,27.8903,-94.0367,4.0,6.592670172,123.9314501,7.64,'11111222,11111222,11111222' 
TABS,ioos:station:wmo:42046:1,2009-10-02T20:00:00Z,27.8903,-94.0367,4.0,6.279251548,135.3874425,7.33,'11111222,11111222,11111222' 
TABS,ioos:station:wmo:42046:1,2009-10-02T20:30:00Z,27.8903,-94.0367,4.0,6.872001164,143.1637492,8.06,'11111222,11111222,11111222' 
TABS,ioos:station:wmo:42046:1,2009-10-02T21:00:00Z,27.8903,-94.0367,4.0,6.219083534,148.2781065,7.2,'11111222,11111222,11111222' 
TABS,ioos:station:wmo:42046:1,2009-10-02T21:30:00Z,27.8903,-94.0367,4.0,6.455385349,157.4077081,7.63,'11111222,11111222,11111222' 
TABS,ioos:station:wmo:42046:1,2009-10-02T22:00:00Z,27.8903,-94.0367,4.0,7.287475557,164.7244406,8.46,'11111222,11111222,11111222' 
TABS,ioos:station:wmo:42046:1,2009-10-02T22:30:00Z,27.8903,-94.0367,4.0,6.69805942,172.4508063,7.63,'11111222,11111222,11111222' 
TABS,ioos:station:wmo:42046:1,2009-10-02T23:00:00Z,27.8903,-94.0367,4.0,7.061196782,178.9453107,7.99,'11111222,11111222,11111222' 
TABS,ioos:station:wmo:42046:1,2009-10-02T23:30:00Z,27.8903,-94.0367,4.0,6.926940161,182.565208,8.11,'11111222,11111222,11111222' 
TABS,ioos:station:wmo:42046:1,2009-10-03T00:00:00Z,27.8903,-94.0367,4.0,6.400632781,180.8058774,7.39,'11111222,11111222,11111222' 
TABS,ioos:station:wmo:42046:1,2009-10-03T00:30:00Z,27.8903,-94.0367,4.0,6.054295995,188.3578156,6.91,'11111222,11111222,11111222' 
TABS,ioos:station:wmo:42046:1,2009-10-03T01:00:00Z,27.8903,-94.0367,4.0,5.336215888,194.765599,6.29,'11111222,11111222,11111222' 
TABS,ioos:station:wmo:42046:1,2009-10-03T01:30:00Z,27.8903,-94.0367,4.0,4.816845441,193.6902281,5.72,'11111222,11111222,11111222' 
TABS,ioos:station:wmo:42046:1,2009-10-03T02:00:00Z,27.8903,-94.0367,4.0,4.983342252,203.787535,5.69,'11111222,11111222,11111222' 
TABS,ioos:station:wmo:42046:1,2009-10-03T02:30:00Z,27.8903,-94.0367,4.0,5.074958128,200.2919307,6.2,'11111222,11111222,11111222' 
TABS,ioos:station:wmo:42046:1,2009-10-03T03:00:00Z,27.8903,-94.0367,4.0,4.748831435,204.2444029,5.79,'11111222,11111222,11111222' 
TABS,ioos:station:wmo:42046:1,2009-10-03T03:30:00Z,27.8903,-94.0367,4.0,3.961868246,210.3190358,4.99,'11111222,11111222,11111222' 
TABS,ioos:station:wmo:42046:1,2009-10-03T04:00:00Z,27.8903,-94.0367,4.0,4.038923124,210.5016468,4.95,'11111222,11111222,11111222' 
TABS,ioos:station:wmo:42046:1,2009-10-03T04:30:00Z,27.8903,-94.0367,4.0,3.78276354,218.0212337,4.53,'11111222,11111222,11111222' 
TABS,ioos:station:wmo:42046:1,2009-10-03T05:00:00Z,27.8903,-94.0367,4.0,3.819345494,219.9017253,4.66,'11111222,11111222,11111222' 
TABS,ioos:station:wmo:42046:1,2009-10-03T05:30:00Z,27.8903,-94.0367,4.0,3.456153932,218.8929414,4.27,'11111222,11111222,11111222' 
TABS,ioos:station:wmo:42046:1,2009-10-03T06:00:00Z,27.8903,-94.0367,4.0,2.652413995,226.3749368,3.41,'11111222,11111222,11111222' 
TABS,ioos:station:wmo:42046:1,2009-10-03T06:30:00Z,27.8903,-94.0367,4.0,2.213526598,224.0849172,2.96,'11111222,11111222,11111222' 
TABS,ioos:station:wmo:42046:1,2009-10-03T07:00:00Z,27.8903,-94.0367,4.0,1.212641744,229.347552,2.24,'11111222,11111222,11111222' 
TABS,ioos:station:wmo:42046:1,2009-10-03T07:30:00Z,27.8903,-94.0367,4.0,0.328024389,232.4314958,1.09,'11111222,11111222,11111222' 
TABS,ioos:station:wmo:42046:1,2009-10-03T08:00:00Z,27.8903,-94.0367,4.0,0.361247837,184.763841,1.44,'11111222,11111222,11111222' 
TABS,ioos:station:wmo:42046:1,2009-10-03T08:30:00Z,27.8903,-94.0367,4.0,0.765506368,146.7254003,1.6,'11111222,11111222,11111222' 
TABS,ioos:station:wmo:42046:1,2009-10-03T09:00:00Z,27.8903,-94.0367,4.0,1.417921013,154.5195521,2.09,'11111222,11111222,11111222' 
TABS,ioos:station:wmo:42046:1,2009-10-03T09:30:00Z,27.8903,-94.0367,4.0,1.080740487,141.0093076,1.97,'11111222,11111222,11111222' 
TABS,ioos:station:wmo:42046:1,2009-10-03T10:00:00Z,27.8903,-94.0367,4.0,1.512878052,155.807058,2.4,'11111222,11111222,11111222' 
TABS,ioos:station:wmo:42046:1,2009-10-03T10:30:00Z,27.8903,-94.0367,4.0,1.685496959,161.6728011,2.66,'11111222,11111222,11111222' 
TABS,ioos:station:wmo:42046:1,2009-10-03T11:00:00Z,27.8903,-94.0367,4.0,2.159282288,132.1847656,3.04,'11111222,11111222,11111222' 
TABS,ioos:station:wmo:42046:1,2009-10-03T11:30:00Z,27.8903,-94.0367,4.0,2.607144031,124.0561216,3.75,'11111222,11111222,11111222' 
TABS,ioos:station:wmo:42046:1,2009-10-03T12:00:00Z,27.8903,-94.0367,4.0,2.226971037,112.9962612,3.13,'11111222,11111222,11111222' 
TABS,ioos:station:wmo:42046:1,2009-10-03T12:30:00Z,27.8903,-94.0367,4.0,3.135554177,110.3425495,4.17,'11111222,11111222,11111222' 
TABS,ioos:station:wmo:42046:1,2009-10-03T13:00:00Z,27.8903,-94.0367,4.0,3.46145923,116.787485,4.53,'11111222,11111222,11111222' 
TABS,ioos:station:wmo:42046:1,2009-10-03T13:30:00Z,27.8903,-94.0367,4.0,4.321897731,114.9051315,5.4,'11111222,11111222,11111222' 
TABS,ioos:station:wmo:42046:1,2009-10-03T14:00:00Z,27.8903,-94.0367,4.0,4.201737736,133.4573717,5.21,'11111222,11111222,11111222' 
TABS,ioos:station:wmo:42046:1,2009-10-03T14:30:00Z,27.8903,-94.0367,4.0,4.483056993,135.0003157,5.49,'11111222,11111222,11111222' 
TABS,ioos:station:wmo:42046:1,2009-10-03T15:00:00Z,27.8903,-94.0367,4.0,4.888598981,140.6449247,6.14,'11111222,11111222,11111222' 
TABS,ioos:station:wmo:42046:1,2009-10-03T15:30:00Z,27.8903,-94.0367,4.0,4.994897396,150.0988925,5.65,'11111222,11111222,11111222' 
TABS,ioos:station:wmo:42046:1,2009-10-03T16:00:00Z,27.8903,-94.0367,4.0,4.675863557,141.5127235,5.49,'11111222,11111222,11111222' 
TABS,ioos:station:wmo:42046:1,2009-10-03T16:30:00Z,27.8903,-94.0367,4.0,5.556473702,151.8671332,6.41,'11111222,11111222,11111222' 
TABS,ioos:station:wmo:42046:1,2009-10-03T17:00:00Z,27.8903,-94.0367,4.0,5.577902832,156.8826002,6.36,'11111222,11111222,11111222' 
TABS,ioos:station:wmo:42046:1,2009-10-03T17:30:00Z,27.8903,-94.0367,4.0,5.474897259,160.4731457,6.5,'11111222,11111222,11111222' 
TABS,ioos:station:wmo:42046:1,2009-10-03T18:00:00Z,27.8903,-94.0367,4.0,6.209484681,156.8622532,6.97,'11111222,11111222,11111222' 
TABS,ioos:station:wmo:42046:1,2009-10-03T18:30:00Z,27.8903,-94.0367,4.0,6.081356757,160.9992195,7.18,'11111222,11111222,11111222' 
TABS,ioos:station:wmo:42046:1,2009-10-03T19:00:00Z,27.8903,-94.0367,4.0,6.651616345,158.2948245,7.5,'11111222,11111222,11111222' 
TABS,ioos:station:wmo:42046:1,2009-10-03T19:30:00Z,27.8903,-94.0367,4.0,6.607306562,154.8314536,7.69,'11111222,11111222,11111222' 
TABS,ioos:station:wmo:42046:1,2009-10-03T20:00:00Z,27.8903,-94.0367,4.0,6.111906413,163.166319,7.16,'11111222,11111222,11111222' 
TABS,ioos:station:wmo:42046:1,2009-10-03T20:30:00Z,27.8903,-94.0367,4.0,5.94465306,159.8277579,6.97,'11111222,11111222,11111222' 
TABS,ioos:station:wmo:42046:1,2009-10-03T21:00:00Z,27.8903,-94.0367,4.0,6.944501422,155.3173263,7.94,'11111222,11111222,11111222' 
TABS,ioos:station:wmo:42046:1,2009-10-03T21:30:00Z,27.8903,-94.0367,4.0,6.756330365,160.2779788,7.7,'11111222,11111222,11111222' 
TABS,ioos:station:wmo:42046:1,2009-10-03T22:00:00Z,27.8903,-94.0367,4.0,6.767348077,161.8330395,8.01,'11111222,11111222,11111222' 
TABS,ioos:station:wmo:42046:1,2009-10-03T22:30:00Z,27.8903,-94.0367,4.0,6.522737156,164.9839542,7.79,'11111222,11111222,11111222' 
TABS,ioos:station:wmo:42046:1,2009-10-03T23:00:00Z,27.8903,-94.0367,4.0,6.81187933,159.7297047,7.7,'11111222,11111222,11111222' 
TABS,ioos:station:wmo:42046:1,2009-10-03T23:30:00Z,27.8903,-94.0367,4.0,6.627654185,163.9717287,7.73,'11111222,11111222,11111222' 
TABS,ioos:station:wmo:42046:1,2009-10-04T00:00:00Z,27.8903,-94.0367,4.0,6.684309987,165.7976849,8.32,'11111222,11111222,11111222' 
TABS,ioos:station:wmo:42046:1,2009-10-04T00:30:00Z,27.8903,-94.0367,4.0,6.51459899,162.1215557,7.31,'11111222,11111222,11111222' 
TABS,ioos:station:wmo:42046:1,2009-10-04T01:00:00Z,27.8903,-94.0367,4.0,6.531837414,165.3682998,7.61,'11111222,11111222,11111222' 
TABS,ioos:station:wmo:42046:1,2009-10-04T01:30:00Z,27.8903,-94.0367,4.0,7.003684744,163.0659315,8.05,'11111222,11111222,11111222' 
TABS,ioos:station:wmo:42046:1,2009-10-04T02:00:00Z,27.8903,-94.0367,4.0,6.524760532,166.7094401,7.21,'11111222,11111222,11111222' 
TABS,ioos:station:wmo:42046:1,2009-10-04T02:30:00Z,27.8903,-94.0367,4.0,6.017815218,161.5954128,7.0,'11111222,11111222,11111222' 
TABS,ioos:station:wmo:42046:1,2009-10-04T03:00:00Z,27.8903,-94.0367,4.0,6.105243648,160.0812935,7.24,'11111222,11111222,11111222' 
TABS,ioos:station:wmo:42046:1,2009-10-04T03:30:00Z,27.8903,-94.0367,4.0,6.085474509,158.7058798,7.07,'11111222,11111222,11111222' 
TABS,ioos:station:wmo:42046:1,2009-10-04T04:00:00Z,27.8903,-94.0367,4.0,6.08926925,167.2877274,7.31,'11111222,11111222,11111222' 
TABS,ioos:station:wmo:42046:1,2009-10-04T04:30:00Z,27.8903,-94.0367,4.0,5.971976222,165.056468,7.3,'11111222,11111222,11111222' 
TABS,ioos:station:wmo:42046:1,2009-10-04T05:00:00Z,27.8903,-94.0367,4.0,5.864639801,157.5457317,6.67,'11111222,11111222,11111222' 
TABS,ioos:station:wmo:42046:1,2009-10-04T05:30:00Z,27.8903,-94.0367,4.0,6.062738655,159.5327007,7.41,'11111222,11111222,11111222' 
TABS,ioos:station:wmo:42046:1,2009-10-04T06:00:00Z,27.8903,-94.0367,4.0,5.79007772,159.6874317,6.92,'11111222,11111222,11111222' 
TABS,ioos:station:wmo:42046:1,2009-10-04T06:30:00Z,27.8903,-94.0367,4.0,5.236506469,165.5128623,6.17,'11111222,11111222,11111222' 
TABS,ioos:station:wmo:42046:1,2009-10-04T07:00:00Z,27.8903,-94.0367,4.0,6.146543744,158.0257539,7.55,'11111222,11111222,11111222' 
TABS,ioos:station:wmo:42046:1,2009-10-04T07:30:00Z,27.8903,-94.0367,4.0,6.151625801,162.5962205,8.19,'11111222,11111222,11111222' 
TABS,ioos:station:wmo:42046:1,2009-10-04T08:00:00Z,27.8903,-94.0367,4.0,7.799487163,169.9582103,9.63,'11111222,11111222,11111222' 
TABS,ioos:station:wmo:42046:1,2009-10-04T08:30:00Z,27.8903,-94.0367,4.0,8.67020761,173.2440618,10.07,'11111222,11111222,11111222' 
TABS,ioos:station:wmo:42046:1,2009-10-04T09:00:00Z,27.8903,-94.0367,4.0,7.38421289,174.4826486,9.03,'11111222,11111222,11111222' 
TABS,ioos:station:wmo:42046:1,2009-10-04T09:30:00Z,27.8903,-94.0367,4.0,6.974525073,167.9169569,8.27,'11111222,11111222,11111222' 
TABS,ioos:station:wmo:42046:1,2009-10-04T10:00:00Z,27.8903,-94.0367,4.0,7.741350011,169.4305921,9.46,'11111222,11111222,11111222' 
TABS,ioos:station:wmo:42046:1,2009-10-04T10:30:00Z,27.8903,-94.0367,4.0,7.835106891,168.2170345,9.1,'11111222,11111222,11111222' 
TABS,ioos:station:wmo:42046:1,2009-10-04T11:00:00Z,27.8903,-94.0367,4.0,7.46327676,194.6694964,9.62,'11111222,11111222,11111222' 
TABS,ioos:station:wmo:42046:1,2009-10-04T11:30:00Z,27.8903,-94.0367,4.0,7.042684147,167.2861241,8.45,'11111222,11111222,11111222' 
TABS,ioos:station:wmo:42046:1,2009-10-04T12:00:00Z,27.8903,-94.0367,4.0,10.05883691,174.3519763,11.92,'11111222,11111222,11111222' 
TABS,ioos:station:wmo:42046:1,2009-10-04T12:30:00Z,27.8903,-94.0367,4.0,9.167649644,185.1946272,11.26,'11111222,11111222,11111222' 
TABS,ioos:station:wmo:42046:1,2009-10-04T13:00:00Z,27.8903,-94.0367,4.0,8.367484688,193.9699914,10.3,'11111222,11111222,11111222' 
TABS,ioos:station:wmo:42046:1,2009-10-04T13:30:00Z,27.8903,-94.0367,4.0,10.49423651,188.8252204,12.67,'11111222,11111222,11111222' 
TABS,ioos:station:wmo:42046:1,2009-10-04T14:00:00Z,27.8903,-94.0367,4.0,9.809841997,191.5850235,12.0,'11111222,11111222,11111222' 
TABS,ioos:station:wmo:42046:1,2009-10-04T14:30:00Z,27.8903,-94.0367,4.0,9.333434523,192.5622809,11.77,'11111222,11111222,11111222' 
TABS,ioos:station:wmo:42046:1,2009-10-04T15:00:00Z,27.8903,-94.0367,4.0,9.105652091,196.0665734,10.9,'11111222,11111222,11111222' 
TABS,ioos:station:wmo:42046:1,2009-10-04T15:30:00Z,27.8903,-94.0367,4.0,9.500410517,199.2361349,11.12,'11111222,11111222,11111222' 
TABS,ioos:station:wmo:42046:1,2009-10-04T16:00:00Z,27.8903,-94.0367,4.0,9.256224932,198.8461814,11.11,'11111222,11111222,11111222' 
TABS,ioos:station:wmo:42046:1,2009-10-04T16:30:00Z,27.8903,-94.0367,4.0,9.607007859,198.5105548,11.36,'11111222,11111222,11111222' 
TABS,ioos:station:wmo:42046:1,2009-10-04T17:00:00Z,27.8903,-94.0367,4.0,9.401494562,198.6085636,10.89,'11111222,11111222,11111222' 
TABS,ioos:station:wmo:42046:1,2009-10-04T17:30:00Z,27.8903,-94.0367,4.0,9.196956018,199.3019718,10.84,'11111222,11111222,11111222' 
TABS,ioos:station:wmo:42046:1,2009-10-04T18:00:00Z,27.8903,-94.0367,4.0,8.91899658,201.9924345,10.05,'11111222,11111222,11111222' 
TABS,ioos:station:wmo:42046:1,2009-10-04T18:30:00Z,27.8903,-94.0367,4.0,9.006320003,200.6083284,11.0,'11111222,11111222,11111222' 